THORAD AGENA D DEB, 42522

Orbit data source: Space-Track

THORAD AGENA D DEB, 42522 is space debris in SSO originally from a launch on Wed, 08 Apr 1970 UTC launched from the Air Force Western Test Range (AFWTR). Debris objects in space refer to the collection of defunct objects orbiting the Earth. Examples of debris include non-operational satellites, rocket bodies, and fragments generated from explosions, collisions, or faulty payload assembly.

Loading next visibility...
Identifier
42522, 1970-025SC
Orbit
SSO
Country
Flag of USUS
Related business
Manufacturer
Unknown
Mission
Spacecraft
Bus & Motor
Unknown
Mass
Unknown
Launch date (UTC)
1970-04-08 (56 years ago)
Launch vehicle
Unknown
Launch site
Air Force Western Test Range (AFWTR)
Object type
Payload
Rocket body
Debris
Shape & HBR
Unknown shape, 0.1 m
Radar Cross Section
Small (<0.1 m²)

Expand to show TLE details & history
Last TLE update: 4 days ago

TLE from 4 days ago
0 THORAD AGENA D DEB
1 42522U 70025SC  26169.54176528  .00000329  00000-0  46482-3 0  9992
2 42522  99.6520 274.7800 0029889 327.0248  32.9030 13.64442106625100
Epoch: 2026-06-18T13:00Z
TLE epoch observation values (Epoch: 2026-06-18T13:00:08.520Z)
Latitude
0.00001°
Longitude
172.96089°
Altitude
1,003.851 km
Speed
7.359 km/s
True Right ascension
18h 19m 07s
True Declination
0° 00' 00"
Sunlit
Object was in full shadow at epoch
Visualization orbit readout
Latitude
Unknown
Longitude
Unknown
Altitude
Unknown
Speed
Unknown
Apparent Right ascension
Unknown
Apparent Declination
Unknown
Sunlit
N/A
Visualization observer readout
Local Sidereal Time
21:38:31
Azimuth
Unknown
Elevation
Unknown
Doppler factor
Unknown
Orbital elements
Apogee altitude
1,038.975 km
Perigee altitude
994.769 km
Semi-major axis
7,395.009 km
Eccentricity
0.00299
Inclination
99.652°
RAAN
274.78°
Arg. of periapsis
327.0248°
True anomaly
33.08964°
Mean anomaly
32.903°
Eccentric anomaly
32.99626°
Mean motion
3.41299 °/min
Orbital period
105.48 mins
BSTAR
0.00046482
Loading maneuver chart data...
Computing Atmospheric mass density...

Documentation

Showing up to 5 results
|